When you browse on this site, cookies collect data to enhance your experience and personalize the content and advertising you see.
Visit our Privacy Policy to learn more. By continuing to use the site, you agree to this use of cookies and data.

Meteo orario Xiuyan

Oggi, 16 Luglio, Giovedi

Tempo Temperatura Precipitazioni Vento Pressione Umidità
00:00 +19°C° 0 mm 0 m/s 745 mm Hg 92%
01:00 +19°C° 0 mm 0 m/s 745 mm Hg 92%
02:00 +19°C° 0 mm 0 m/s 745 mm Hg 92%
03:00 +19°C° 0 mm 0 m/s 745 mm Hg 92%
04:00 +18°C° 0 mm 0 m/s 745 mm Hg 93%
05:00 +18°C° 0 mm 0 m/s 745 mm Hg 94%
06:00 +22°C° 0 mm 1 m/s 746 mm Hg 89%
07:00 +23°C° 0 mm 1 m/s 746 mm Hg 85%
08:00 +25°C° 0 mm 1 m/s 746 mm Hg 81%
09:00 +27°C° 0 mm 2 m/s 746 mm Hg 75%
10:00 +28°C° 0 mm 2 m/s 746 mm Hg 69%
11:00 +29°C° 0 mm 2 m/s 745 mm Hg 64%
12:00 +30°C° 0 mm 3 m/s 745 mm Hg 63%
13:00 +30°C° 0 mm 3 m/s 745 mm Hg 63%
14:00 +30°C° 0 mm 4 m/s 745 mm Hg 64%
15:00 +29°C° 0 mm 4 m/s 745 mm Hg 67%
16:00 +28°C° 0 mm 4 m/s 745 mm Hg 71%
17:00 +28°C° 0 mm 3 m/s 745 mm Hg 75%
18:00 +26°C° 0 mm 3 m/s 745 mm Hg 81%
19:00 +24°C° 0 mm 2 m/s 746 mm Hg 88%
20:00 +22°C° 0 mm 1 m/s 746 mm Hg 94%
21:00 +22°C° 0 mm 1 m/s 746 mm Hg 95%
22:00 +21°C° 0 mm 1 m/s 746 mm Hg 96%
23:00 +21°C° 0 mm 1 m/s 746 mm Hg 97%

Domani, 17 Luglio, Venerdi

Tempo Temperatura Precipitazioni Vento Pressione Umidità
00:00 +21°C° 0 mm 1 m/s 746 mm Hg 97%
01:00 +21°C° 0 mm 1 m/s 746 mm Hg 97%
02:00 +21°C° 0 mm 1 m/s 746 mm Hg 98%
03:00 +21°C° 0 mm 1 m/s 747 mm Hg 98%
04:00 +21°C° 0 mm 1 m/s 747 mm Hg 98%
05:00 +21°C° 0 mm 1 m/s 747 mm Hg 97%
06:00 +22°C° 0 mm 1 m/s 747 mm Hg 93%
07:00 +23°C° 0 mm 2 m/s 747 mm Hg 88%
08:00 +25°C° 0 mm 2 m/s 747 mm Hg 84%
09:00 +26°C° 0 mm 2 m/s 747 mm Hg 78%
10:00 +28°C° 0 mm 3 m/s 748 mm Hg 72%
11:00 +29°C° 0 mm 4 m/s 748 mm Hg 67%
12:00 +29°C° 0 mm 4 m/s 747 mm Hg 65%
13:00 +30°C° 0 mm 4 m/s 747 mm Hg 63%
14:00 +30°C° 0 mm 4 m/s 747 mm Hg 61%
15:00 +29°C° 0 mm 4 m/s 747 mm Hg 63%
16:00 +28°C° 0 mm 3 m/s 747 mm Hg 66%
17:00 +28°C° 0 mm 3 m/s 747 mm Hg 68%
18:00 +26°C° 0 mm 2 m/s 747 mm Hg 76%
19:00 +24°C° 0 mm 2 m/s 747 mm Hg 83%
20:00 +22°C° 0 mm 1 m/s 747 mm Hg 91%
21:00 +21°C° 0 mm 1 m/s 748 mm Hg 92%
22:00 +20°C° 0 mm 1 m/s 748 mm Hg 93%
23:00 +20°C° 0 mm 1 m/s 748 mm Hg 95%

Dopodomani, 18 Luglio, Sabato

Tempo Temperatura Precipitazioni Vento Pressione Umidità
00:00 +19°C° 0 mm 1 m/s 748 mm Hg 95%
01:00 +19°C° 0 mm 1 m/s 748 mm Hg 95%
02:00 +19°C° 0 mm 1 m/s 748 mm Hg 95%
03:00 +19°C° 0 mm 1 m/s 748 mm Hg 96%
04:00 +19°C° 0 mm 1 m/s 748 mm Hg 96%
05:00 +19°C° 0 mm 1 m/s 748 mm Hg 96%
06:00 +21°C° 0 mm 1 m/s 748 mm Hg 92%
07:00 +22°C° 0 mm 1 m/s 748 mm Hg 87%
08:00 +24°C° 0 mm 2 m/s 748 mm Hg 82%
09:00 +25°C° 0 mm 2 m/s 748 mm Hg 77%
10:00 +26°C° 0 mm 3 m/s 748 mm Hg 71%
11:00 +27°C° 0 mm 3 m/s 748 mm Hg 66%
12:00 +28°C° 0 mm 3 m/s 748 mm Hg 64%
13:00 +29°C° 0 mm 4 m/s 747 mm Hg 62%
14:00 +29°C° 0 mm 4 m/s 747 mm Hg 60%
15:00 +28°C° 0 mm 4 m/s 747 mm Hg 62%
16:00 +28°C° 0 mm 3 m/s 747 mm Hg 65%
17:00 +27°C° 0 mm 3 m/s 747 mm Hg 68%
18:00 +25°C° 0 mm 2 m/s 747 mm Hg 75%
19:00 +23°C° 0 mm 1 m/s 747 mm Hg 82%
20:00 +21°C° 0 mm 1 m/s 747 mm Hg 89%
21:00 +21°C° 0 mm 1 m/s 748 mm Hg 89%
22:00 +20°C° 0 mm 1 m/s 748 mm Hg 89%
23:00 +18°C° 0 mm 0 m/s 748 mm Hg 90%

19 Luglio, Domenica

Tempo Temperatura Precipitazioni Vento Pressione Umidità
00:00 +20°C° 0 mm 1 m/s 747 mm Hg 90%
01:00 +19°C° 0 mm 1 m/s 747 mm Hg 90%
02:00 +19°C° 0 mm 1 m/s 747 mm Hg 90%
03:00 +19°C° 0 mm 1 m/s 747 mm Hg 90%
04:00 +19°C° 0 mm 1 m/s 746 mm Hg 91%
05:00 +19°C° 0 mm 1 m/s 746 mm Hg 91%
06:00 +20°C° 0 mm 2 m/s 746 mm Hg 86%
07:00 +23°C° 0 mm 2 m/s 746 mm Hg 81%
08:00 +24°C° 0 mm 3 m/s 746 mm Hg 76%
09:00 +25°C° 0 mm 4 m/s 746 mm Hg 74%
10:00 +27°C° 0 mm 5 m/s 745 mm Hg 72%
11:00 +28°C° 0 mm 6 m/s 745 mm Hg 69%
12:00 +27°C° 0 mm 7 m/s 745 mm Hg 71%
13:00 +27°C° 0 mm 7 m/s 744 mm Hg 72%
14:00 +27°C° 0 mm 7 m/s 743 mm Hg 73%
15:00 +24°C° 0.8 mm 7 m/s 743 mm Hg 80%
16:00 +23°C° 0.8 mm 7 m/s 742 mm Hg 87%
17:00 +22°C° 0.8 mm 7 m/s 742 mm Hg 95%
18:00 +22°C° 5.5 mm 7 m/s 741 mm Hg 96%
19:00 +22°C° 5.5 mm 8 m/s 741 mm Hg 97%
20:00 +22°C° 5.5 mm 9 m/s 741 mm Hg 98%
21:00 +22°C° 6.7 mm 9 m/s 740 mm Hg 98%
22:00 +22°C° 6.7 mm 10 m/s 740 mm Hg 98%
23:00 +22°C° 6.7 mm 10 m/s 739 mm Hg 98%

20 Luglio, Lunedi

Tempo Temperatura Precipitazioni Vento Pressione Umidità
00:00 +23°C° 5.4 mm 10 m/s 739 mm Hg 98%
01:00 +23°C° 5.4 mm 10 m/s 738 mm Hg 98%
02:00 +23°C° 5.4 mm 11 m/s 738 mm Hg 98%
03:00 +23°C° 4.7 mm 10 m/s 737 mm Hg 98%
04:00 +24°C° 4.7 mm 9 m/s 737 mm Hg 98%
05:00 +24°C° 4.7 mm 8 m/s 737 mm Hg 98%
06:00 +24°C° 0.2 mm 7 m/s 737 mm Hg 96%
07:00 +23°C° 0.2 mm 6 m/s 738 mm Hg 94%
08:00 +23°C° 0.2 mm 5 m/s 739 mm Hg 92%
09:00 +22°C° 0.6 mm 5 m/s 739 mm Hg 94%
10:00 +22°C° 0.6 mm 5 m/s 740 mm Hg 95%
11:00 +22°C° 0.6 mm 4 m/s 740 mm Hg 97%
12:00 +22°C° 0.4 mm 3 m/s 741 mm Hg 96%
13:00 +23°C° 0.4 mm 2 m/s 741 mm Hg 96%
14:00 +24°C° 0.4 mm 1 m/s 741 mm Hg 96%
15:00 +23°C° 0.1 mm 2 m/s 742 mm Hg 94%
16:00 +22°C° 0.1 mm 3 m/s 742 mm Hg 92%
17:00 +22°C° 0.1 mm 5 m/s 743 mm Hg 90%
18:00 +21°C° 0 mm 4 m/s 743 mm Hg 91%
19:00 +20°C° 0 mm 3 m/s 744 mm Hg 93%
20:00 +19°C° 0 mm 2 m/s 745 mm Hg 94%
21:00 +19°C° 0 mm 2 m/s 745 mm Hg 94%
22:00 +19°C° 0 mm 1 m/s 745 mm Hg 93%
23:00 +19°C° 0 mm 1 m/s 746 mm Hg 93%

21 Luglio, Martedi

Tempo Temperatura Precipitazioni Vento Pressione Umidità
00:00 +19°C° 0 mm 1 m/s 746 mm Hg 93%
01:00 +19°C° 0 mm 1 m/s 746 mm Hg 92%
02:00 +18°C° 0 mm 1 m/s 746 mm Hg 92%
03:00 +18°C° 0 mm 1 m/s 747 mm Hg 91%
04:00 +19°C° 0 mm 1 m/s 747 mm Hg 91%
05:00 +19°C° 0 mm 1 m/s 748 mm Hg 90%
06:00 +21°C° 0 mm 1 m/s 748 mm Hg 84%
07:00 +23°C° 0 mm 1 m/s 748 mm Hg 78%
08:00 +23°C° 0 mm 0 m/s 748 mm Hg 72%
09:00 +27°C° 0 mm 1 m/s 748 mm Hg 68%
10:00 +28°C° 0 mm 1 m/s 748 mm Hg 64%
11:00 +30°C° 0 mm 1 m/s 748 mm Hg 59%
12:00 +30°C° 0 mm 1 m/s 748 mm Hg 59%
13:00 +31°C° 0 mm 2 m/s 748 mm Hg 58%
14:00 +31°C° 0 mm 2 m/s 747 mm Hg 57%
15:00 +31°C° 0 mm 2 m/s 747 mm Hg 62%
16:00 +30°C° 0 mm 2 m/s 747 mm Hg 67%
17:00 +29°C° 0 mm 2 m/s 747 mm Hg 72%
18:00 +27°C° 0 mm 2 m/s 748 mm Hg 74%
19:00 +25°C° 0 mm 1 m/s 748 mm Hg 76%
20:00 +21°C° 0 mm 0 m/s 748 mm Hg 79%
21:00 +20°C° 0 mm 0 m/s 748 mm Hg 77%
22:00 +22°C° 0 mm 1 m/s 748 mm Hg 75%
23:00 +21°C° 0 mm 1 m/s 749 mm Hg 73%
Mostrare altro